Location: Degersen
(52.2871°N, 9.5716°E)
Time: 23:01:41
(UTC+00:00)

CZ-4C R/B - Pass Details

Date: 20 January 2026
Orbit: 483 x 1496 km, 63.4° (Epoch: 7 February)

Event Time Altitude Azimuth Distance (km) Brightness Sun altitude
Exits shadow 05:13:11 20° 322° (NW) 2,114 3.9 -18.7°
Maximum altitude 05:17:42 53° 32° (NNE) 1,350 3.3 -18.0°
Drops below altitude 10° 05:25:34 10° 108° (ESE) 3,337 6.6 -16.9°
Sets 05:28:49 0° 113° (ESE) 4,423 7.6 -16.4°
